Terminal Aerodrome Forecast
Issued by NWS

Home | Current Version | Previous Version | Text Only | Print | Product List | Glossary On
Versions: 1 2 3 4 5 6 7 8 9 10 11 12 13 14 15 16
000
FTUS43 KJKL 252326
TAFSJS
TAF
KSJS 252326Z 2600/2624 30010KT P6SM BKN050
     FM260200 28007KT P6SM SCT040
     FM261100 25004KT P6SM FEW200=

USA.gov is the U.S. government's official web portal to all federal, state and local government web resources and services.